Ainsworth, NE

4:19 PM CST on December 15, 2017 (GMT -0600)
Ainsworth Municipal

Weather History for KANW - March, 2014

Change the Weather History Date:

Wednesday, March 26, 2014

  Actual Average Record
Temperature  
Mean Temperature 48 °F -  
Max Temperature 67 °F 49 °F 84 °F (2012)
Min Temperature 29 °F 28 °F 9 °F (2013)
Degree Days  
Heating Degree Days 17    
Moisture  
Dew Point 25 °F    
Average Humidity 51    
Maximum Humidity 74    
Minimum Humidity 24    
Precipitation  
Precipitation 0.00 in - - ()
Sea Level Pressure  
Sea Level Pressure 29.56 in    
Wind  
Wind Speed 19 mph (South)    
Max Wind Speed 25 mph    
Max Gust Speed 33 mph    
Visibility 10 miles    
Events Thunderstorm    
Averages and records for this station are not official NWS values.
T = Trace of Precipitation, MM = Missing Value Source: NWS Daily Summary

Daily Weather History Graph

Daily Weather History Graph

Search for Another Location

Airport or City:

Trip Planner

Search our weather history database for the weather conditions in past years. The results will help you decide how hot, cold, wet, or windy it might be!

Date:

Astronomy

Mar. 26, 2014 Rise Set
Actual Time 7:32 AM CDT 7:59 PM CDT
Civil Twilight 7:04 AM CDT 8:27 PM CDT
Nautical Twilight 6:31 AM CDT 9:00 PM CDT
Astronomical Twilight 5:57 AM CDT 9:35 PM CDT
Moon 4:48 AM CDT (3/26) 3:34 PM CDT (3/26)
Length of Visible Light 13h 23m
Length of Day
12h 26m
Waning Crescent, 21% of the Moon is Illuminated
Mar 26
Waning Crescent
Mar 30
New
Apr 7
First Quarter
Apr 15
Full
Apr 22
Last Quarter

Hourly Weather History & Observations

Time (CDT) Temp. Windchill Dew Point Humidity Pressure Visibility Wind Dir Wind Speed Gust Speed Precip Events Conditions
12:15 AM 33.1 °F 23.0 °F 18.0 °F 54% 29.87 in 10.0 mi SSE 15.0 mph 24.2 mph N/A   Clear
12:35 AM 32.9 °F 22.0 °F 17.6 °F 53% 29.85 in 10.0 mi SSE 17.3 mph 27.6 mph N/A   Clear
12:55 AM 32.5 °F 21.5 °F 17.6 °F 54% 29.84 in 10.0 mi South 17.3 mph 23.0 mph N/A   Clear
1:15 AM 32.4 °F 20.3 °F 17.6 °F 55% 29.83 in 10.0 mi South 20.7 mph 26.5 mph N/A   Clear
1:35 AM 32.2 °F 19.1 °F 17.6 °F 55% 29.81 in 10.0 mi South 24.2 mph 32.2 mph N/A   Clear
1:55 AM 32.2 °F 19.4 °F 17.6 °F 55% 29.80 in 10.0 mi South 23.0 mph 33.4 mph N/A   Clear
2:15 AM 32.0 °F 18.6 °F 17.6 °F 55% 29.78 in 10.0 mi South 25.3 mph 29.9 mph N/A   Clear
2:35 AM 32.0 °F 19.5 °F 18.0 °F 56% 29.77 in 10.0 mi South 21.9 mph 28.8 mph N/A   Clear
2:55 AM 32.0 °F 19.8 °F 18.5 °F 58% 29.76 in 10.0 mi South 20.7 mph 27.6 mph N/A   Clear
3:15 AM 32.0 °F 19.5 °F 18.5 °F 58% 29.74 in 10.0 mi South 21.9 mph 29.9 mph N/A   Clear
3:35 AM 32.2 °F 19.7 °F 18.5 °F 57% 29.72 in 10.0 mi South 21.9 mph 31.1 mph N/A   Clear
3:55 AM 32.0 °F 19.8 °F 18.5 °F 58% 29.71 in 10.0 mi South 20.7 mph 29.9 mph N/A   Clear
4:15 AM 32.0 °F 18.9 °F 18.9 °F 58% 29.70 in 10.0 mi South 24.2 mph 28.8 mph N/A   Clear
4:35 AM 32.0 °F 19.2 °F 19.2 °F 59% 29.68 in 10.0 mi South 23.0 mph - N/A   Clear
4:55 AM 32.0 °F 19.8 °F 19.9 °F 61% 29.68 in 10.0 mi South 20.7 mph 27.6 mph N/A   Clear
5:15 AM 31.8 °F 19.9 °F 20.3 °F 62% 29.67 in 10.0 mi South 19.6 mph 28.8 mph N/A   Clear
5:35 AM 31.1 °F 18.9 °F 20.7 °F 65% 29.66 in 10.0 mi South 19.6 mph 23.0 mph N/A   Clear
5:55 AM 30.7 °F 19.2 °F 20.8 °F 67% 29.65 in 10.0 mi South 17.3 mph 24.2 mph N/A   Clear
6:15 AM 30.7 °F 18.1 °F 21.2 °F 68% 29.64 in 10.0 mi South 20.7 mph 26.5 mph N/A   Clear
6:35 AM 30.6 °F 19.4 °F 21.6 °F 69% 29.63 in 10.0 mi South 16.1 mph 23.0 mph N/A   Clear
6:55 AM 30.7 °F 19.2 °F 21.9 °F 70% 29.62 in 10.0 mi South 17.3 mph 23.0 mph N/A   Clear
7:15 AM 30.2 °F 17.8 °F 22.1 °F 72% 29.62 in 10.0 mi South 19.6 mph - N/A   Clear
7:35 AM 29.8 °F 18.9 °F 22.5 °F 74% 29.62 in 10.0 mi South 15.0 mph - N/A   Clear
7:55 AM 30.6 °F 19.8 °F 23.0 °F 74% 29.61 in 10.0 mi South 15.0 mph 19.6 mph N/A   Clear
8:15 AM 31.8 °F 20.6 °F 23.7 °F 72% 29.60 in 10.0 mi South 17.3 mph 23.0 mph N/A   Clear
8:35 AM 32.2 °F 20.7 °F 23.9 °F 72% 29.59 in 10.0 mi South 18.4 mph 24.2 mph N/A   Clear
8:55 AM 33.8 °F 22.5 °F 24.3 °F 68% 29.58 in 10.0 mi South 19.6 mph 23.0 mph N/A   Clear
9:15 AM 35.6 °F 24.5 °F 24.4 °F 64% 29.56 in 10.0 mi South 20.7 mph 24.2 mph N/A   Clear
9:35 AM 37.9 °F 27.1 °F 24.4 °F 58% 29.55 in 10.0 mi South 23.0 mph 29.9 mph N/A   Clear
9:55 AM 39.7 °F 30.3 °F 24.6 °F 55% 29.55 in 10.0 mi South 19.6 mph 26.5 mph N/A   Clear
10:15 AM 41.7 °F 33.4 °F 25.0 °F 52% 29.55 in 10.0 mi SSW 17.3 mph 23.0 mph N/A   Clear
10:35 AM 43.5 °F 34.5 °F 25.7 °F 50% 29.53 in 10.0 mi South 23.0 mph - N/A   Clear
10:55 AM 45.9 °F 37.4 °F 25.9 °F 46% 29.51 in 10.0 mi South 24.2 mph 31.1 mph N/A   Clear
11:15 AM 48.0 °F - 26.4 °F 43% 29.51 in 10.0 mi South 20.7 mph - N/A   Clear
11:35 AM 50.5 °F - 26.6 °F 39% 29.50 in 10.0 mi SSW 19.6 mph 26.5 mph N/A   Clear
11:55 AM 51.4 °F - 26.8 °F 38% 29.49 in 10.0 mi South 21.9 mph - N/A   Clear
12:15 PM 52.9 °F - 27.0 °F 37% 29.48 in 10.0 mi South 18.4 mph - N/A   Clear
12:35 PM 55.0 °F - 27.3 °F 34% 29.47 in 10.0 mi South 18.4 mph 24.2 mph N/A   Clear
12:55 PM 57.2 °F - 28.0 °F 33% 29.46 in 10.0 mi South 15.0 mph 20.7 mph N/A   Clear
1:15 PM 57.7 °F - 28.0 °F 32% 29.46 in 10.0 mi South 15.0 mph - N/A   Clear
1:35 PM 59.0 °F - 28.2 °F 31% 29.44 in 10.0 mi South 18.4 mph 21.9 mph N/A   Clear
1:55 PM 59.7 °F - 28.9 °F 31% 29.43 in 10.0 mi South 23.0 mph - N/A   Clear
2:15 PM 60.4 °F - 29.1 °F 31% 29.43 in 10.0 mi South 21.9 mph 25.3 mph N/A   Clear
2:35 PM 62.1 °F - 29.3 °F 29% 29.41 in 10.0 mi South 23.0 mph 27.6 mph N/A   Clear
2:55 PM 63.1 °F - 30.0 °F 29% 29.40 in 10.0 mi South 19.6 mph 28.8 mph N/A   Clear
3:35 PM 65.3 °F - 30.6 °F 27% 29.36 in 10.0 mi South 17.3 mph 26.5 mph N/A   Clear
4:35 PM 67.6 °F - 29.8 °F 24% 29.33 in 10.0 mi South 20.7 mph 25.3 mph N/A   Clear
5:15 PM 67.6 °F - 29.5 °F 24% 29.31 in 10.0 mi South 18.4 mph - N/A   Clear
7:55 PM 60.6 °F - 30.2 °F 32% 29.29 in 10.0 mi West 11.5 mph - N/A   Clear
8:55 PM 62.1 °F - 38.3 °F 41% 29.29 in 10.0 mi South 16.1 mph 21.9 mph N/A   Clear
9:55 PM 58.1 °F - 40.1 °F 51% 29.31 in 10.0 mi South 16.1 mph - N/A   Overcast
10:15 PM 57.7 °F - 39.7 °F 51% 29.35 in 10.0 mi WNW 9.2 mph - N/A   Overcast
10:35 PM 57.9 °F - 39.7 °F 51% 29.36 in 10.0 mi West 3.5 mph 10.4 mph N/A   Mostly Cloudy
10:55 PM 50.4 °F - 31.8 °F 49% 29.37 in 10.0 mi North 5.8 mph - N/A   Clear
11:15 PM 48.2 °F - 31.3 °F 52% 29.38 in 10.0 mi NNW 8.1 mph - N/A Thunderstorm Thunderstorm
11:35 PM 48.2 °F - 31.6 °F 53% 29.41 in 10.0 mi NW 10.4 mph - N/A   Mostly Cloudy
11:55 PM 48.2 °F - 31.1 °F 52% 29.40 in 10.0 mi NW 13.8 mph - N/A   Overcast